Date String (YYYY-MM-DD hh:mm:ss) UTC,Instrument flags,Ambient pressure (hPa),Sample flow (lpm),Bypass flow (lpm),Sample temperature (°C),Ambient temperature (°C),ASC tube jacket temperature (°C),LED temperature (°C),Box temperature (°C),Sample RH (%),Span deviation,Mass concentration (μg/m³),Mass concentration (μg/m³),Mass concentration (μg/m³)
DateTimeUTC,F1_M11,P_M11,Q1_M11,Q2_M11,T1_M11,T2_M11,T3_M11,T4_M11,T5_M11,U1_M11,ZSPAN_M11,X0_M11,X2_M11,X1_M11
2021-10-28 15:00:00,,0831.7,5.01,0.00,21.3,20.6,00.0,30.5,22.9,16.9,0000.0,0011.12,0002.91,0001.54
2021-10-28 15:01:00,,0831.8,4.99,0.00,21.2,20.6,00.0,30.5,23.0,16.8,0000.0,0011.11,0002.90,0001.51
2021-10-28 15:02:00,,0831.7,4.99,0.00,21.2,20.6,00.0,30.5,22.9,16.9,0000.0,0011.35,0002.96,0001.49
2021-10-28 15:03:00,,0831.7,5.01,0.00,21.3,20.6,00.0,30.4,22.9,16.7,0000.0,0011.49,0002.94,0001.46
2021-10-28 15:04:00,,0831.7,5.00,0.00,21.2,20.6,00.0,30.4,23.0,16.4,0000.0,0011.18,0002.82,0001.43
2021-10-28 15:05:00,,0831.7,4.99,0.00,21.2,20.6,00.0,30.4,23.0,16.4,0000.0,0010.95,0002.76,0001.41
2021-10-28 15:06:00,,0831.7,5.03,0.00,21.2,20.6,00.0,30.4,22.9,16.5,0000.0,0011.05,0002.75,0001.39
2021-10-28 15:07:00,,0831.8,4.99,0.00,21.2,20.6,00.0,30.4,22.9,16.2,0000.0,0009.86,0002.71,0001.38
2021-10-28 15:08:00,,0831.8,5.00,0.00,21.2,20.6,00.0,30.4,22.9,16.1,0000.0,0009.01,0002.63,0001.36
2021-10-28 15:09:00,,0831.9,5.01,0.00,21.2,20.6,00.0,30.4,22.9,15.7,0000.0,0008.46,0002.54,0001.34
2021-10-28 15:10:00,,0832.0,5.00,0.00,21.2,20.6,00.0,30.4,22.9,15.9,0000.0,0008.42,0002.50,0001.32
2021-10-28 15:11:00,,0831.9,5.00,0.00,21.2,20.5,00.0,30.4,22.9,16.0,0000.0,0007.92,0002.44,0001.29
2021-10-28 15:12:00,,0832.0,4.99,0.00,21.2,20.5,00.0,30.4,22.9,15.9,0000.0,0007.44,0002.41,0001.28
2021-10-28 15:13:00,,0831.9,4.99,0.00,21.2,20.5,00.0,30.4,22.8,15.9,0000.0,0006.88,0002.26,0001.25
2021-10-28 15:14:00,,0831.9,5.00,0.00,21.2,20.5,00.0,30.3,22.8,15.8,0000.0,0006.58,0002.18,0001.24
2021-10-28 15:15:00,,0831.9,5.01,0.00,21.1,20.4,00.0,30.3,22.8,15.7,0000.0,0007.01,0002.13,0001.23
2021-10-28 15:16:00,,0831.9,4.99,0.00,21.1,20.4,00.0,30.3,22.8,15.9,0000.0,0007.58,0002.08,0001.22
2021-10-28 15:17:00,,0832.0,5.00,0.00,21.1,20.4,00.0,30.3,22.8,15.9,0000.0,0007.25,0002.08,0001.21
2021-10-28 15:18:00,,0832.0,5.00,0.00,21.1,20.4,00.0,30.3,22.8,15.9,0000.0,0007.41,0002.09,0001.20
2021-10-28 15:19:00,,0832.0,5.00,0.00,21.1,20.4,00.0,30.3,22.8,15.6,0000.0,0007.90,0002.09,0001.20
2021-10-28 15:20:00,,0832.0,5.01,0.00,21.1,20.4,00.0,30.3,22.8,15.6,0000.0,0008.11,0002.05,0001.19
2021-10-28 15:21:00,,0831.9,5.00,0.00,21.1,20.5,00.0,30.3,22.8,15.5,0000.0,0008.03,0002.03,0001.19
2021-10-28 15:22:00,,0832.0,5.01,0.00,21.2,21.4,00.0,30.3,23.0,15.6,0000.0,0007.59,0002.02,0001.18
2021-10-28 15:23:00,,0832.0,4.99,0.00,21.4,22.5,00.0,30.4,23.4,15.2,0000.0,0007.49,0001.99,0001.17
2021-10-28 15:24:00,,0832.1,5.00,0.00,21.5,23.1,00.0,30.4,23.6,15.1,0000.0,0007.74,0001.96,0001.17
2021-10-28 15:25:00,,0832.0,5.00,0.00,21.6,22.8,00.0,30.5,23.6,14.9,0000.0,0008.49,0001.94,0001.17
2021-10-28 15:26:00,,0832.0,5.00,0.00,21.6,22.4,00.0,30.5,23.6,14.8,0000.0,0008.27,0001.93,0001.18
2021-10-28 15:27:00,,0831.9,5.01,0.00,21.6,22.1,00.0,30.5,23.5,14.8,0000.0,0007.68,0001.96,0001.21
2021-10-28 15:28:00,,0832.0,5.00,0.00,21.6,21.8,00.0,30.5,23.4,14.9,0000.0,0007.59,0001.93,0001.21
2021-10-28 15:29:00,,0832.0,4.99,0.00,21.6,21.6,00.0,30.6,23.3,15.0,0000.0,0007.47,0001.88,0001.23
2021-10-28 15:30:00,,0831.8,5.02,0.00,21.6,21.5,00.0,30.6,23.3,14.8,0000.0,0007.31,0001.94,0001.24
2021-10-28 15:31:00,,0831.9,4.98,0.00,21.6,21.3,00.0,30.6,23.3,14.8,0000.0,0007.15,0001.98,0001.27
2021-10-28 15:32:00,,0831.9,5.00,0.00,21.6,21.3,00.0,30.6,23.3,15.0,0000.0,0007.20,0002.01,0001.28
2021-10-28 15:33:00,,0832.0,5.01,0.00,21.6,21.2,00.0,30.6,23.3,15.2,0000.0,0007.22,0002.04,0001.30
2021-10-28 15:34:00,,0831.9,4.99,0.00,21.6,21.1,00.0,30.6,23.3,15.1,0000.0,0007.10,0002.01,0001.31
2021-10-28 15:35:00,,0832.0,5.01,0.00,21.5,21.0,00.0,30.6,23.3,15.0,0000.0,0006.96,0002.03,0001.33
2021-10-28 15:36:00,,0832.1,5.01,0.00,21.5,21.0,00.0,30.6,23.2,15.0,0000.0,0006.97,0002.05,0001.34
2021-10-28 15:37:00,,0832.1,4.98,0.00,21.5,20.9,00.0,30.6,23.2,15.0,0000.0,0007.93,0002.11,0001.34
2021-10-28 15:38:00,,0832.0,5.02,0.00,21.5,20.8,00.0,30.6,23.1,15.1,0000.0,0008.71,0002.11,0001.34
2021-10-28 15:39:00,,0831.9,5.00,0.00,21.4,20.8,00.0,30.6,23.1,15.2,0000.0,0008.87,0002.18,0001.35
2021-10-28 15:40:00,,0831.8,5.00,0.00,21.4,20.8,00.0,30.6,23.1,15.4,0000.0,0008.80,0002.21,0001.37
2021-10-28 15:41:00,,0831.8,4.99,0.00,21.4,20.9,00.0,30.6,23.1,15.3,0000.0,0008.39,0002.20,0001.39
2021-10-28 15:42:00,,0831.8,5.00,0.00,21.4,20.8,00.0,30.6,23.1,15.3,0000.0,0008.54,0002.23,0001.40
2021-10-28 15:43:00,,0831.9,4.99,0.00,21.4,20.8,00.0,30.6,23.1,15.3,0000.0,0008.58,0002.23,0001.43
2021-10-28 15:44:00,,0831.9,5.01,0.00,21.4,20.7,00.0,30.6,23.1,15.3,0000.0,0008.67,0002.23,0001.44
2021-10-28 15:45:00,,0832.0,4.99,0.00,21.4,20.7,00.0,30.5,23.0,15.2,0000.0,0008.71,0002.25,0001.45
2021-10-28 15:46:00,,0831.9,5.00,0.00,21.3,20.7,00.0,30.5,23.0,15.2,0000.0,0008.69,0002.30,0001.46
2021-10-28 15:47:00,,0832.0,5.00,0.00,21.3,20.6,00.0,30.5,23.0,15.3,0000.0,0009.48,0002.44,0001.48
2021-10-28 15:48:00,,0831.8,5.00,0.00,21.3,20.6,00.0,30.5,22.9,15.4,0000.0,0009.80,0002.51,0001.51
2021-10-28 15:49:00,,0831.8,5.00,0.00,21.3,20.6,00.0,30.5,22.9,15.4,0000.0,0010.12,0002.75,0001.55
2021-10-28 15:50:00,,0831.8,4.99,0.00,21.3,20.6,00.0,30.5,22.9,15.4,0000.0,0011.12,0002.89,0001.57
2021-10-28 15:51:00,,0831.7,5.01,0.00,21.3,20.5,00.0,30.5,22.9,15.3,0000.0,0012.95,0003.08,0001.59
2021-10-28 15:52:00,,0831.8,5.00,0.00,21.2,20.5,00.0,30.5,22.9,15.4,0000.0,0013.29,0003.14,0001.60
2021-10-28 15:53:00,,0831.8,5.00,0.00,21.2,20.5,00.0,30.4,22.9,15.4,0000.0,0013.47,0003.18,0001.61
2021-10-28 15:54:00,,0831.9,5.00,0.00,21.2,20.5,00.0,30.4,22.9,15.5,0000.0,0016.04,0003.35,0001.64
2021-10-28 15:55:00,,0831.9,4.99,0.00,21.2,20.5,00.0,30.4,22.9,15.5,0000.0,0016.99,0003.38,0001.65
2021-10-28 15:56:00,,0831.8,4.98,0.00,21.2,20.5,00.0,30.4,22.8,15.5,0000.0,0017.44,0003.39,0001.64
2021-10-28 15:57:00,,0831.8,5.00,0.00,21.2,20.5,00.0,30.4,22.8,15.7,0000.0,0017.63,0003.37,0001.63
2021-10-28 15:58:00,,0831.8,5.01,0.00,21.2,20.5,00.0,30.4,22.9,15.8,0000.0,0016.61,0003.37,0001.62
2021-10-28 15:59:00,,0831.7,4.99,0.00,21.2,20.5,00.0,30.4,22.9,15.8,0000.0,0015.32,0003.35,0001.61
